Ingeniero Juan Guillermo Villasana Airport

Jump to: basic info | weather | frequencies | runways | comments

Related pages: nearby airports | nearby navaids | notams | map

Basic information (top)

Codes: MMPC
Location: lon 20.077400, lat -98.782501, elev 7,600 ft / 2,316 m msl
Status: small_airport

Weather (top)

Current conditions for Licenciado Benito Juarez International Airport 42nm (77km) SSW (rec'd 2014/11/26 14:22Z):

MMMX 261422Z 09007KT 7SM SKC 08/04 A3046 NOSIG RMK HZY

Airport forecast for Licenciado Benito Juarez International Airport 42nm (77km) SSW (rec'd 2014/11/25 00:13Z):

TAF MMMX 252306Z 2600/2706 10012KT P6SM SCT020 BKN080 OVC220 TX25/2621Z TN12/2612Z 
      BECMG 2602/2603 02006KT 
     FM260800 04005KT P6SM SCT020 BKN080 
      BECMG 2610/2611 6SM HZ 
      TEMPO 2611/2615 3SM BR HZ BKN020 BKN080 
     FM261700 06008KT P6SM SCT020 
      BECMG 2620/2621 09015KT 
     FM270300 08008KT P6SM SCT080

Frequencies (top)

Verify before use: may be inaccurate or out of date.

AFIS: 122.9 MHz (AFIS)

Runways (top)

03/21: 6,825 x 85 ft (2,080 x 26 m) — paved — not lighted — threshold 03 displaced 656 ft (200 m) — threshold 21 displaced 865 ft (264 m)

Latest comments (top)

No comments yet for Ingeniero Juan Guillermo Villasana Airport

More... (top)

See also NOTAMs and nearby airports and navaids, or visit the Ingeniero Juan Guillermo Villasana Airport page at the main OurAirports website..